Weather History for Joplin, MO

Change the Weather History Date:

Tuesday, May 24, 2011

  Actual Average Record
Temperature  
Mean Temperature 69 °F 69 °F  
Max Temperature 80 °F 80 °F 90 °F (1996)
Min Temperature 58 °F 58 °F 45 °F (2001)
Degree Days  
Heating Degree Days 0 1  
Month to date heating degree days 137 59  
Since 1 July heating degree days 4245 4062  
Cooling Degree Days 4 5  
Month to date cooling degree days 86 84  
Year to date cooling degree days 155 138  
Growing Degree Days 20 (Base 50)    
Moisture  
Dew Point 63 °F    
Average Humidity 79    
Maximum Humidity 93    
Minimum Humidity 64    
Precipitation  
Precipitation 0.46 in 0.16 in 2.44 in (1957)
Month to date precipitation 6.92 4.46  
Year to date precipitation 21.09 16.70  
Snow  
Snow 0.00 in - - ()
Month to date snowfall 0.0  
Snow Depth 0.00 in    
Sea Level Pressure  
Sea Level Pressure 29.69 in    
Wind  
Wind Speed 10 mph (SSE)    
Max Wind Speed 30 mph    
Max Gust Speed 41 mph    
Visibility 9 miles    
Events Rain , Thunderstorm    
T = Trace of Precipitation, MM = Missing Value Source: NWS Daily Summary

Daily Weather History Graph

Daily Weather History Graph

Search for Another Location

Airport:

Trip Planner

Search our weather history database for the weather conditions in past years. The results will help you decide how hot, cold, wet, or windy it might be!

Date:

Astronomy

May. 24, 2011 Rise Set
Actual Time 6:03 AM CDT 8:26 PM CDT
Civil Twilight 5:33 AM CDT 8:56 PM CDT
Nautical Twilight 4:56 AM CDT 9:33 PM CDT
Astronomical Twilight 4:16 AM CDT 10:13 PM CDT
Moon 1:27 AM CDT (5/24) 1:03 PM CDT (5/24)
Length of Visible Light 15h 22m
Length of Day
14h 23m
Waning Gibbous, 51% of the Moon is Illuminated
May 24
Waning Gibbous
May 24
Last Quarter
Jun 1
New
Jun 8
First Quarter
Jun 15
Full

Hourly Weather History & Observations

Time (CDT) Temp. Heat Index Dew Point Humidity Pressure Visibility Wind Dir Wind Speed Gust Speed Precip Events Conditions
12:53 AM 63.0 °F - 57.0 °F 81% 29.73 in 10.0 mi SSE 15.0 mph - N/A   Clear
1:53 AM 63.0 °F - 57.9 °F 84% 29.73 in 10.0 mi SE 12.7 mph 19.6 mph N/A   Clear
2:53 AM 62.1 °F - 57.9 °F 86% 29.73 in 10.0 mi SSE 8.1 mph - N/A   Clear
3:53 AM 60.1 °F - 57.0 °F 90% 29.73 in 10.0 mi SSE 6.9 mph - N/A   Clear
4:53 AM 59.0 °F - 57.0 °F 93% 29.74 in 10.0 mi SE 3.5 mph - N/A   Scattered Clouds
5:53 AM 59.0 °F - 57.0 °F 93% 29.75 in 10.0 mi East 3.5 mph - N/A   Clear
6:53 AM 59.0 °F - 57.9 °F 96% 29.75 in 10.0 mi ESE 3.5 mph - N/A   Clear
7:53 AM 64.0 °F - 59.0 °F 84% 29.75 in 10.0 mi SE 5.8 mph - N/A   Clear
8:53 AM 68.0 °F - 57.9 °F 70% 29.75 in 10.0 mi SE 9.2 mph - N/A   Clear
9:53 AM 72.0 °F - 60.1 °F 66% 29.75 in 10.0 mi SSE 15.0 mph 19.6 mph N/A   Clear
10:53 AM 75.0 °F - 63.0 °F 66% 29.74 in 10.0 mi South 10.4 mph 20.7 mph N/A   Clear
11:53 AM 75.0 °F - 64.9 °F 71% 29.73 in 10.0 mi SSE 15.0 mph 20.7 mph N/A   Overcast
12:48 PM 75.2 °F - 66.2 °F 73% 29.73 in 10.0 mi SSE 13.8 mph 21.9 mph N/A   Overcast
12:53 PM 75.9 °F - 66.0 °F 71% 29.71 in 10.0 mi SSE 12.7 mph 21.9 mph N/A   Overcast
1:11 PM 77.0 °F - 68.0 °F 74% 29.73 in 10.0 mi SSE 12.7 mph 20.7 mph N/A   Overcast
1:39 PM 77.0 °F - 66.2 °F 69% 29.72 in 10.0 mi SSE 8.1 mph - N/A   Overcast
1:53 PM 77.0 °F - 68.0 °F 74% 29.70 in 10.0 mi SSE 12.7 mph 19.6 mph N/A   Overcast
2:38 PM 78.8 °F - 69.8 °F 74% 29.70 in 9.0 mi SSE 16.1 mph 23.0 mph N/A   Overcast
2:53 PM 78.1 °F - 69.1 °F 74% 29.68 in 9.0 mi South 15.0 mph 18.4 mph N/A   Overcast
3:53 PM 78.1 °F - 69.1 °F 74% 29.66 in 9.0 mi SSE 12.7 mph - N/A   Overcast
4:48 PM 80.6 °F 83.9 °F 69.8 °F 70% 29.65 in 9.0 mi SE 13.8 mph - N/A   Mostly Cloudy
4:53 PM 79.0 °F - 69.1 °F 72% 29.64 in 9.0 mi SSE 16.1 mph 21.9 mph N/A   Mostly Cloudy
5:53 PM 78.1 °F - 69.1 °F 74% 29.60 in 9.0 mi SE 11.5 mph 19.6 mph N/A   Mostly Cloudy
6:53 PM 75.9 °F - 68.0 °F 76% 29.60 in 8.0 mi SE 12.7 mph 20.7 mph N/A   Overcast
7:53 PM 75.9 °F - 68.0 °F 76% 29.58 in 7.0 mi SE 12.7 mph 21.9 mph N/A   Overcast
8:53 PM 73.9 °F - 69.1 °F 85% 29.60 in 8.0 mi SSE 8.1 mph - N/A   Mostly Cloudy
9:38 PM 71.6 °F - 66.2 °F 83% 29.67 in 8.0 mi West 29.9 mph 41.4 mph 0.00 in Thunderstorm Squalls
9:53 PM 64.9 °F - 60.1 °F 84% 29.62 in 9.0 mi NW 9.2 mph - 0.02 in Rain , Thunderstorm Light Thunderstorms and Rain
10:12 PM 62.6 °F - 60.8 °F 94% 29.70 in 1.8 mi South 15.0 mph 31.1 mph 0.17 in Rain , Thunderstorm Heavy Thunderstorms and Rain
10:20 PM 62.6 °F - 60.8 °F 94% 29.70 in 1.5 mi SW 18.4 mph 27.6 mph 0.35 in Rain , Thunderstorm Heavy Thunderstorms and Rain
10:30 PM 62.6 °F - 60.8 °F 94% 29.71 in 3.0 mi South 15.0 mph 27.6 mph 0.41 in Rain , Thunderstorm Thunderstorms and Rain
10:38 PM 62.6 °F - 60.8 °F 94% 29.68 in 9.0 mi SW 5.8 mph 24.2 mph 0.41 in Rain , Thunderstorm Light Thunderstorms and Rain
10:53 PM 62.1 °F - 60.1 °F 93% 29.65 in 10.0 mi SE 4.6 mph - 0.42 in Rain , Thunderstorm Light Rain
11:05 PM 62.6 °F - 60.8 °F 94% 29.64 in 10.0 mi East 10.4 mph - 0.00 in   Overcast
11:53 PM 62.1 °F - 61.0 °F 96% 29.63 in 10.0 mi SE 10.4 mph - 0.01 in Rain Light Rain